DECAYED
Showing default

ICEYE-X18, 52749 (Decayed)

Orbit data source: Space-Track

ICEYE-X18, 52749 was a Brazilian payload satellite in LEO that was launched on Wed, 25 May 2022 UTC via an FALCON 9 launch vehicle from the Air Force Eastern Test Range (AFETR). Payload-class satellites include a variety of spacecraft equipped with specific instruments for various scientific and technological missions. These include communications satellites like Starlink; space stations such as the ISS; scientific satellites like the Hubble; Earth observation satellites from companies like Planet Labs, Umbra, and HawkEye 360; GPS; miniature CubeSats for education and research; and military/defense satellites.

Not visible in the next 10 days
Identifier
52749, 2022-057T
Orbit
Decayed
Country
Flag of BRBR / BRAZ
Related business
Manufacturer
ICEYE
Mission
Decayed Defense Radar Imaging
Bus & Motor
ICEYE, Unknown motor
Mass
80 kg wet, 80 kg dry
Launch date (UTC)
2022-05-25 (4 years ago)
Launch vehicle
FALCON 9
Launch site
Air Force Eastern Test Range (AFETR)
Object type
Payload
Rocket body
Debris
Shape & HBR
Box + 1 Pan, 1.6 m
Radar Cross Section
1.837 m², Medium (>0.1 m² and < 1m²)

Expand to show TLE details & history
Last TLE update: 1 year ago

TLE from 1 year ago
0 ICEYE-X18
1 52749U 22057T   25070.75847188  .15490060  26594-5  38355-3 0  9998
2 52749  97.5453 211.7976 0011682 275.8963  84.1006 16.45158447155727
Epoch: 2025-03-11T18:12Z
TLE epoch observation values (Epoch: 2025-03-11T18:12:11.970Z)
Latitude
-0.00012°
Longitude
129.09092°
Altitude
154.594 km
Speed
7.814 km/s
True Right ascension
14h 07m 11s
True Declination
0° 00' 00"
Sunlit
Object was in full shadow at epoch
Visualization orbit readout
Latitude
Unknown
Longitude
Unknown
Altitude
Unknown
Speed
Unknown
Apparent Right ascension
Unknown
Apparent Declination
Unknown
Sunlit
N/A
Visualization observer readout
Local Sidereal Time
21:55:00
Azimuth
Unknown
Elevation
Unknown
Doppler factor
Unknown
Orbital elements
Apogee altitude
156.549 km
Perigee altitude
141.299 km
Semi-major axis
6,527.061 km
Eccentricity
0.00117
Inclination
97.5453°
RAAN
211.7976°
Arg. of periapsis
275.8963°
True anomaly
84.23378°
Mean anomaly
84.1006°
Eccentric anomaly
84.16719°
Mean motion
4.11592 °/min
Orbital period
87.47 mins
BSTAR
0.00038355
Loading maneuver chart data...
Computing Atmospheric mass density...
Loading historical data...
Loading historical data...
Loading historical data...
Loading historical data...
Loading historical data...
Loading historical data...
Loading historical data...

Documentation

Showing up to 5 results
|